Retour au catalogue

BSAT-3A

ActifCommunicationsGEO
NORAD 32019·PAYLOAD·🇯🇵 Japan

Lancé Aug 14, 2007 depuis Guiana Space Centre

Loading…

TLE

FraisSource: Space-Track

Époque: Sep 14, 2026, 13:27 UTC

1 32019U 07036B   26257.56061737  .00000070  00000-0  00000-0 0  9995
2 32019   1.8872  86.4921 0005611 110.6229 222.9393  0.99139712 51352

Suivez BSAT-3A en temps réel avec AllMySat

Download on the App Store